Location: 3 Angels Observatory
(30.5437°N, 88.5068°W)
Time: 07:57:17
(UTC-05:00)

Amateur Radio Satellites - All Passes

Search period start: 26 May 2017 07:27
Search period end: 27 May 2017 07:27
Location: 3 Angels Observatory, 30.5437°N, 88.5068°W

Satellite Date Start Highest point End Downlink Frequencies (MHz)
Time Altitude Azimuth
XW-2B 26 May 07:27:17 07:30:51 37° 285° (WNW) 07:34:23 145.730 - 145.750
DOVE 4 26 May 07:34:19 07:37:19 19° 288° (WNW) 07:40:22 437.250
XW-2F 26 May 07:40:36 07:43:48 26° 287° (WNW) 07:46:59 145.980 - 146.000
NUDT-PHONESAT 26 May 07:41:09 07:44:31 31° 286° (WNW) 07:47:51 437.300
XW-2C 26 May 07:41:17 07:44:25 24° 287° (WNW) 07:47:33 145.795 - 145.815
KAITUO 1B 26 May 07:49:09 07:52:16 24° 287° (WNW) 07:55:21 145.475/437.950
JUGNU 26 May 07:53:48 07:58:00 20° 194° (SSW) 08:02:13 437.505
NO-84 26 May 07:56:19 08:00:31 47° 126° (SE) 08:04:43 435.350 FM
SO-50 26 May 07:56:23 08:00:50 57° 61° (ENE) 08:05:17 436.795
CUTE 1.7 + AOD 2 26 May 08:05:42 08:09:56 62° 101° (E) 08:14:06 437.475
STRAND 1 26 May 08:09:29 08:14:19 43° 261° (W) 08:19:09 437.568
HO-68 26 May 08:16:31 08:23:44 74° 104° (ESE) 08:30:53 435.675
XW-2A 26 May 08:19:06 08:22:33 89° 287° (WNW) 08:26:00 145.665 - 145.685
AAUSAT CUBESAT 2 26 May 08:22:20 08:25:43 24° 97° (E) 08:29:05 437.432
ZACube-1 26 May 08:29:11 08:32:05 16° 95° (E) 08:34:57 437.345
M-CUBED/EXP-1 PRIME 26 May 08:30:46 08:35:10 86° 71° (ENE) 08:39:16 437.505
SRMSAT 26 May 08:31:13 08:36:18 29° 183° (S) 08:41:22 437.500
CUBEBUG 2 26 May 08:38:00 08:42:37 71° 101° (E) 08:47:19 437.445
CUTE-I 26 May 08:42:11 08:44:32 13° 295° (WNW) 08:46:53 437.470
UWE-3 26 May 08:49:28 08:54:00 55° 100° (E) 08:58:34 435.000/436.395/437.385
SEEDS 26 May 08:56:04 09:00:06 47° 285° (WNW) 09:04:07 437.485
TIGRISAT 26 May 09:14:34 09:16:28 13° 68° (ENE) 09:18:22 435.000
Oscar 11 26 May 09:24:15 09:28:30 51° 100° (E) 09:32:43 .
NO-84 26 May 09:35:04 09:38:17 20° 319° (NW) 09:41:29 435.350 FM
SO-50 26 May 09:40:12 09:40:45 10° 253° (WSW) 09:41:17 436.795
UNISAT 6 26 May 09:44:01 09:47:49 32° 73° (ENE) 09:51:40 437.425
AO-73 26 May 09:50:12 09:54:41 57° 284° (WNW) 09:59:09 145.935
AAUSAT CUBESAT 2 26 May 09:58:05 10:00:58 19° 289° (WNW) 10:03:50 437.432
PRISM 26 May 09:59:02 10:03:10 74° 77° (ENE) 10:07:17 437.425
ZACube-1 26 May 10:04:13 10:08:21 35° 287° (WNW) 10:12:30 437.345
HO-68 26 May 10:06:19 10:10:39 17° 299° (WNW) 10:14:58 435.675
DELFI C3 26 May 10:19:45 10:23:37 60° 100° (E) 10:27:29 145.870
SRMSAT 26 May 10:20:36 10:24:58 21° 192° (SSW) 10:29:19 437.500
UWE-3 26 May 10:28:30 10:29:56 11° 292° (WNW) 10:31:22 435.000/436.395/437.385
EO-88 26 May 10:29:15 10:32:51 54° 100° (E) 10:36:26 145.990 - 145.960
RS-15 26 May 10:33:16 10:43:49 33° 48° (NE) 10:53:52 29.354- 29.394
FO-29 26 May 10:34:12 10:39:24 68° 258° (WSW) 10:44:35 435.910
TIGRISAT 26 May 10:48:47 10:52:44 39° 261° (W) 10:56:46 435.000
Oscar 11 26 May 11:03:23 11:04:06 10° 293° (WNW) 11:04:49 .
NANOSAT C BR1 26 May 11:05:01 11:07:05 13° 69° (ENE) 11:09:07 145.865
POLYITAN 1 26 May 11:08:30 11:11:11 17° 70° (ENE) 11:13:54 437.675
ESTCUBE 1 26 May 11:13:46 11:15:35 12° 94° (E) 11:17:24 437.505/2401.250
LO-87 26 May 11:14:21 11:17:06 21° 97° (E) 11:19:50 145.935 - 145.965
DUCHIFAT 1 26 May 11:15:22 11:17:55 16° 70° (ENE) 11:20:30 145.980
QB50P2 26 May 11:16:26 11:19:45 23° 72° (ENE) 11:23:06 145.880/145.840
UNISAT 6 26 May 11:22:11 11:24:34 15° 266° (W) 11:26:59 437.425
AIST 2D 26 May 11:40:29 11:43:59 77° 259° (W) 11:47:31 435.315
EO-79 26 May 11:52:48 11:56:55 62° 76° (ENE) 12:01:03 145.935-145.965
SPROUT 26 May 12:08:01 12:09:29 12° 94° (E) 12:10:57 437.525
VELOX 1 26 May 12:10:56 12:12:50 13° 94° (E) 12:14:44 145.980
NANOSAT C BR1 26 May 12:38:35 12:42:24 35° 261° (W) 12:46:16 145.865
POLYITAN 1 26 May 12:43:06 12:46:42 28° 263° (W) 12:50:20 437.675
RS-15 26 May 12:45:13 12:57:04 67° 249° (WSW) 13:08:18 29.354- 29.394
YUBILEINY 26 May 12:46:19 12:55:10 74° 83° (E) 13:03:59 435.215
LO-87 26 May 12:48:08 12:50:19 16° 288° (WNW) 12:52:30 145.935 - 145.965
ESTCUBE 1 26 May 12:48:15 12:52:31 43° 286° (WNW) 12:56:46 437.505/2401.250
DX 1 26 May 12:48:31 12:49:20 10° 94° (E) 12:50:09 434.975-435.025
DUCHIFAT 1 26 May 12:49:41 12:53:19 29° 262° (W) 12:56:57 145.980
QB50P2 26 May 12:52:19 12:55:25 20° 264° (W) 12:58:33 145.880/145.840
BUGSAT 1 26 May 13:08:34 13:12:31 65° 259° (WSW) 13:16:30 437.445
Gurwin Techsat 1B 26 May 13:17:27 13:21:49 27° 70° (ENE) 13:26:11 435.225
AO-85 26 May 13:34:22 13:37:45 25° 58° (ENE) 13:41:19 145.980
Oscar 19 26 May 13:40:52 13:46:03 83° 76° (ENE) 13:51:16 437.125/150
SPROUT 26 May 13:41:28 13:45:30 42° 286° (WNW) 13:49:31 437.525
VELOX 1 26 May 13:45:17 13:49:23 40° 286° (WNW) 13:53:29 145.980
50 SAT 26 May 14:02:56 14:06:01 34° 285° (WNW) 14:09:06 437.505
UKube-1 26 May 14:14:09 14:18:28 90° 107° (ESE) 14:22:45 .
O/OREOS (USA 219) 26 May 14:19:22 14:23:50 61° 70° (ENE) 14:28:15 437.305
DX 1 26 May 14:21:32 14:25:40 47° 286° (WNW) 14:29:49 434.975-435.025
BEESAT 2 26 May 14:31:47 14:32:38 11° 51° (NE) 14:33:30 435.950
ITAMSAT 1 26 May 14:43:19 14:47:19 23° 69° (ENE) 14:51:21 435.822/435.867
YUBILEINY 26 May 14:45:35 14:50:56 18° 279° (W) 14:56:18 435.215
ITUPSAT 1 26 May 14:46:45 14:49:05 13° 94° (E) 14:51:24 437.325
BEESAT 3 26 May 14:49:52 14:53:46 50° 60° (ENE) 14:57:35 437.485
Gurwin Techsat 1B 26 May 14:57:03 15:01:35 29° 263° (W) 15:06:09 435.225
MOZHAYETS 4 26 May 15:05:11 15:06:26 11° 93° (E) 15:07:41
AO-7 26 May 15:07:08 15:15:04 53° 68° (ENE) 15:23:02 .
AO-85 26 May 15:14:45 15:17:59 22° 248° (WSW) 15:21:24 145.980
BEESAT 26 May 15:18:41 15:23:00 33° 98° (E) 15:27:17 436.000
BEESAT 2 26 May 16:06:44 16:10:42 54° 245° (WSW) 16:14:35 435.950
NO-84 26 May 16:13:28 16:16:24 23° 42° (NE) 16:19:08 435.350 FM
ITAMSAT 1 26 May 16:22:00 16:26:33 31° 262° (W) 16:31:08 435.822/435.867
ITUPSAT 1 26 May 16:22:27 16:27:03 46° 286° (WNW) 16:31:38 437.325
MOZHAYETS 4 26 May 16:39:17 16:43:47 51° 286° (WNW) 16:48:16
BEESAT 26 May 16:57:05 17:00:29 20° 291° (WNW) 17:03:52 436.000
DOVE 4 26 May 16:57:27 17:00:02 15° 70° (ENE) 17:02:33 437.250
AO-7 26 May 17:01:16 17:07:59 27° 262° (W) 17:14:45 .
LilacSat-2 26 May 17:22:23 17:24:01 12° 69° (ENE) 17:25:38 437.200
CUBESAT XI-V 26 May 17:24:52 17:29:31 79° 102° (ESE) 17:34:06 437.345
KKS-1 26 May 17:32:56 17:37:23 80° 104° (ESE) 17:41:49 437.445
NO-84 26 May 17:51:17 17:53:45 19° 239° (WSW) 17:56:06 435.350 FM
XW-2D 26 May 17:54:47 17:58:12 32° 74° (ENE) 18:01:38 145.860 - 145.880
XW-2B 26 May 18:02:34 18:06:07 40° 75° (ENE) 18:09:42 145.730 - 145.750
STARS 26 May 18:04:00 18:08:24 73° 102° (ESE) 18:12:46 437.465
NUDT-PHONESAT 26 May 18:14:20 18:17:51 43° 76° (ENE) 18:21:24 437.300
XW-2F 26 May 18:15:00 18:18:42 59° 77° (ENE) 18:22:28 145.980 - 146.000
XW-2C 26 May 18:15:59 18:19:44 65° 78° (ENE) 18:23:32 145.795 - 145.815
CUTE-I 26 May 18:16:00 18:21:11 58° 74° (ENE) 18:26:23 437.470
KAITUO 1B 26 May 18:22:38 18:26:18 60° 77° (ENE) 18:30:03 145.475/437.950
DOVE 4 26 May 18:32:59 18:37:24 39° 261° (W) 18:41:37 437.250
HO-68 26 May 18:39:38 18:45:41 31° 66° (ENE) 18:51:46 435.675
Tancredo 1 26 May 18:45:28 18:47:37 18° 127° (SE) 18:49:46 437.200
XW-2A 26 May 18:47:11 18:48:12 11° 70° (ENE) 18:49:12 145.665 - 145.685
PCSat 26 May 18:52:36 18:57:54 61° 111° (ESE) 19:03:15 145.827
CUTE 1.7 + AOD 2 26 May 18:53:17 18:56:33 22° 71° (ENE) 18:59:49 437.475
LilacSat-2 26 May 18:54:29 18:57:55 32° 262° (W) 19:01:24 437.200
ISS 26 May 19:16:18 19:19:04 25° 128° (SE) 19:21:50 437.550
XW-2D 26 May 19:31:13 19:32:26 11° 266° (W) 19:33:39 145.860 - 145.880
CUBEBUG 2 26 May 19:31:14 19:34:41 26° 72° (ENE) 19:38:11 437.445
SEEDS 26 May 19:41:30 19:45:37 52° 76° (ENE) 19:49:46 437.485
UWE-3 26 May 19:41:52 19:44:57 20° 71° (ENE) 19:48:04 435.000/436.395/437.385
CUTE-I 26 May 19:59:18 20:01:29 12° 267° (W) 20:03:40 437.470
Oscar 11 26 May 20:14:11 20:17:19 20° 71° (ENE) 20:20:28 .
XW-2A 26 May 20:17:49 20:20:37 25° 263° (W) 20:23:27 145.665 - 145.685
Tancredo 1 26 May 20:20:39 20:23:13 24° 320° (NW) 20:25:48 437.200
STRAND 1 26 May 20:25:15 20:30:25 81° 284° (WNW) 20:35:34 437.568
HO-68 26 May 20:26:28 20:33:07 41° 260° (W) 20:39:49 435.675
CUTE 1.7 + AOD 2 26 May 20:28:48 20:32:12 23° 264° (W) 20:35:38 437.475
PCSat 26 May 20:38:33 20:41:40 15° 307° (NW) 20:44:49 145.827
AO-73 26 May 20:39:50 20:43:53 51° 75° (ENE) 20:48:02 145.935
AAUSAT CUBESAT 2 26 May 20:40:58 20:45:05 61° 260° (W) 20:49:14 437.432
ISS 26 May 20:52:57 20:55:31 21° 322° (NW) 20:58:06 437.550
ZACube-1 26 May 20:53:46 20:57:56 90° 52° (NE) 21:02:12 437.345
DELFI C3 26 May 21:00:42 21:03:11 16° 70° (ENE) 21:05:38 145.870
EO-88 26 May 21:04:26 21:04:57 10° 69° (ENE) 21:05:28 145.990 - 145.960
CUBEBUG 2 26 May 21:08:33 21:11:16 17° 265° (W) 21:14:01 437.445
UWE-3 26 May 21:17:56 21:21:13 23° 264° (W) 21:24:35 435.000/436.395/437.385
UNISAT 6 26 May 21:42:45 21:44:31 12° 93° (E) 21:46:16 437.425
PRISM 26 May 21:47:16 21:49:36 15° 95° (E) 21:51:56 437.425
FO-29 26 May 21:47:59 21:53:15 23° 97° (E) 21:58:53 435.910
M-CUBED/EXP-1 PRIME 26 May 21:49:24 21:52:30 42° 289° (WNW) 21:55:36 437.505
Oscar 11 26 May 21:49:36 21:53:14 26° 263° (W) 21:56:53 .
SO-50 26 May 22:04:51 22:09:26 71° 116° (ESE) 22:13:59 436.795
DELFI C3 26 May 22:34:16 22:37:40 27° 263° (W) 22:41:06 145.870
EO-88 26 May 22:34:54 22:38:14 34° 262° (W) 22:41:36 145.990 - 145.960
TIGRISAT 26 May 22:44:59 22:49:35 63° 101° (E) 22:54:13 435.000
AIST 2D 26 May 23:12:58 23:14:14 12° 94° (E) 23:15:31 435.315
UNISAT 6 26 May 23:16:53 23:21:21 49° 285° (WNW) 23:25:52 437.425
LO-87 26 May 23:17:09 23:20:42 82° 78° (ENE) 23:24:15 145.935 - 145.965
PRISM 26 May 23:21:21 23:24:52 29° 287° (WNW) 23:28:22 437.425
FO-29 26 May 23:31:50 23:38:16 53° 287° (WNW) 23:45:26 435.910
ESTCUBE 1 26 May 23:41:27 23:45:58 83° 78° (ENE) 23:50:32 437.505/2401.250
EO-79 26 May 23:44:07 23:46:45 16° 95° (E) 23:49:21 145.935-145.965
YUBILEINY 26 May 23:48:34 23:52:51 15° 80° (E) 23:57:07 435.215
SO-50 26 May 23:49:14 23:50:19 11° 311° (NW) 23:51:24 436.795
NANOSAT C BR1 27 May 00:27:52 00:32:01 52° 100° (E) 00:36:09 145.865
SPROUT 27 May 00:28:37 00:32:48 67° 76° (ENE) 00:37:01 437.525
50 SAT 27 May 00:29:37 00:32:35 27° 74° (ENE) 00:35:34 437.505
POLYITAN 1 27 May 00:32:34 00:36:51 68° 102° (ESE) 00:41:06 437.675
VELOX 1 27 May 00:36:14 00:40:39 84° 74° (ENE) 00:45:04 145.980
DUCHIFAT 1 27 May 00:38:22 00:42:34 63° 100° (E) 00:46:47 145.980
QB50P2 27 May 00:41:15 00:45:32 84° 283° (WNW) 00:49:48 145.880/145.840
AIST 2D 27 May 00:44:23 00:47:27 27° 286° (WNW) 00:50:29 435.315
RS-15 27 May 00:49:17 00:59:20 33° 104° (ESE) 01:09:38 29.354- 29.394
BUGSAT 1 27 May 00:55:55 00:59:25 26° 98° (E) 01:02:57 437.445
UKube-1 27 May 01:03:03 01:06:57 35° 73° (ENE) 01:10:52 .
DX 1 27 May 01:10:54 01:15:13 69° 76° (ENE) 01:19:33 434.975-435.025
EO-79 27 May 01:18:44 01:22:28 31° 287° (WNW) 01:26:14 145.935-145.965
YUBILEINY 27 May 01:39:43 01:48:26 83° 275° (W) 01:57:13 435.215
Gurwin Techsat 1B 27 May 01:39:59 01:43:16 16° 95° (E) 01:46:32 435.225
Oscar 19 27 May 01:58:20 02:03:17 46° 100° (E) 02:08:10 437.125/150
50 SAT 27 May 02:04:39 02:05:27 11° 265° (W) 02:06:15 437.505
JUGNU 27 May 02:13:23 02:17:21 18° 165° (SSE) 02:21:19 437.505
BEESAT 27 May 02:20:13 02:23:42 21° 69° (ENE) 02:27:12 436.000
BUGSAT 1 27 May 02:31:42 02:34:33 18° 289° (WNW) 02:37:25 437.445
UKube-1 27 May 02:40:40 02:43:00 14° 265° (W) 02:45:22 .
O/OREOS (USA 219) 27 May 02:48:51 02:51:17 14° 99° (E) 02:53:44 437.305
Tancredo 1 27 May 02:49:53 02:52:06 18° 38° (NE) 02:54:18 437.200
RS-15 27 May 02:59:12 03:11:01 61° 302° (WNW) 03:23:16 29.354- 29.394
ITAMSAT 1 27 May 03:03:02 03:05:14 13° 94° (E) 03:07:26 435.822/435.867
AO-7 27 May 03:16:07 03:22:30 24° 97° (E) 03:28:50 .
Gurwin Techsat 1B 27 May 03:18:18 03:23:20 46° 287° (WNW) 03:28:23 435.225
ITUPSAT 1 27 May 03:23:06 03:27:51 77° 258° (WSW) 03:32:39 437.325
ISS 27 May 03:24:36 03:27:26 26° 40° (NE) 03:30:15 437.550
MOZHAYETS 4 27 May 03:34:58 03:39:32 76° 77° (ENE) 03:44:09
Oscar 19 27 May 03:39:03 03:42:09 16° 293° (WNW) 03:45:14 437.125/150
AO-85 27 May 03:43:25 03:47:12 30° 113° (ESE) 03:50:48 145.980
YUBILEINY 27 May 03:43:25 03:46:25 12° 293° (WNW) 03:49:26 435.215
PCSat 27 May 03:47:34 03:50:50 16° 54° (NE) 03:54:05 145.827
BEESAT 27 May 03:57:03 04:01:13 30° 262° (W) 04:05:24 436.000
JUGNU 27 May 04:00:51 04:05:49 28° 175° (S) 04:10:49 437.505
CUBESAT XI-V 27 May 04:22:21 04:26:43 39° 74° (ENE) 04:31:06 437.345
Tancredo 1 27 May 04:25:15 04:27:49 25° 231° (SW) 04:30:23 437.200
KKS-1 27 May 04:25:28 04:29:30 35° 73° (ENE) 04:33:31 437.445
O/OREOS (USA 219) 27 May 04:26:00 04:30:18 38° 292° (WNW) 04:34:35 437.305
BEESAT 3 27 May 04:34:19 04:37:49 32° 112° (ESE) 04:41:22 437.485
ITAMSAT 1 27 May 04:39:50 04:44:56 57° 286° (WNW) 04:50:01 435.822/435.867
SRMSAT 27 May 04:42:11 04:46:00 17° 165° (SSE) 04:49:49 437.500
STARS 27 May 04:55:15 04:59:04 30° 72° (ENE) 05:02:53 437.465
ISS 27 May 05:01:26 05:03:46 18° 233° (SW) 05:06:05 437.550
AO-7 27 May 05:07:21 05:15:31 60° 291° (WNW) 05:23:41 .
RS-15 27 May 05:19:38 05:26:45 17° 327° (NNW) 05:33:57 29.354- 29.394
AO-85 27 May 05:24:42 05:27:33 18° 304° (NW) 05:30:19 145.980
PCSat 27 May 05:29:15 05:34:34 58° 249° (WSW) 05:39:51 145.827
JUGNU 27 May 05:49:22 05:54:22 28° 185° (S) 05:59:23 437.505
BEESAT 2 27 May 05:52:15 05:56:11 81° 296° (WNW) 06:00:12 435.950
XW-2C 27 May 05:56:42 05:57:29 10° 93° (E) 05:58:16 145.795 - 145.815
CUBESAT XI-V 27 May 06:01:25 06:04:09 15° 266° (W) 06:06:54 437.345
KKS-1 27 May 06:03:32 06:06:05 15° 265° (W) 06:08:38 437.445
BEESAT 3 27 May 06:13:00 06:15:26 16° 306° (NW) 06:17:54 437.485
SRMSAT 27 May 06:29:40 06:34:38 27° 174° (S) 06:39:37 437.500
STARS 27 May 06:32:35 06:35:23 17° 264° (W) 06:38:12 437.465
LilacSat-2 27 May 06:32:53 06:36:30 37° 98° (E) 06:40:04 437.200
DOVE 4 27 May 06:36:39 06:40:51 83° 103° (ESE) 06:45:14 437.250
CUTE-I 27 May 06:38:53 06:43:48 37° 99° (E) 06:48:43 437.470
SO-50 27 May 06:42:54 06:45:24 14° 52° (NE) 06:47:54 436.795
XW-2D 27 May 07:06:19 07:10:09 72° 283° (WNW) 07:13:57 145.860 - 145.880
XW-2B 27 May 07:14:19 07:18:06 57° 284° (WNW) 07:21:51 145.730 - 145.750
